Flag for Netherlands Weather past 2 weeks in Apeldoorn, Netherlands

Now
59 °F

Fog.


Feels Like: 59 °F
Forecast: 47 / 61 °F
Wind: 2 mph from Southwest

Location: Deelen

Current Time: Sep 21, 2014 at 2:20:30 AM

Latest Report: Sep 21, 2014 at 1:55 AM


Visibility: 1 mi

Pressure: 29.98 "Hg

Humidity: 100%

Dew point: 59 °F

Location of ApeldoornLocation

Historic Weather in Apeldoorn — Graph

°F

Apeldoorn temperature yesterday

Maximum temperature yesterday: 73 °F (at 1:55 PM)
Minimum temperature yesterday: 54 °F (at 3:55 AM)
Average temperature yesterday: 61 °F

Past Weeks' High & Low Weather Summary

 TemperatureHumidityPressure
High77 °F (Sep 17, 2:55 PM)100% (Sep 6, 12:25 AM)30.27 "Hg (Sep 6, 12:25 AM)
Low45 °F (Sep 12, 6:25 AM)43% (Sep 8, 4:55 PM)29.83 "Hg (Sep 18, 5:25 AM)
Average62 °F85%30.03 "Hg
* Reported Sep 6 12:25 AM — Sep 21 12:55 AM, Apeldoorn, Weather by CustomWeather, © 2014

Note: Actual official high and low records may vary slightly from our data, if they occured in-between our weather recording intervals... More about our weather records

Advertising

Apeldoorn weather history for previous 24 hours

 ConditionsComfort  
Time TempWeatherWind HumidityBarometerVisibility
12:55 AM
Sep 21
61 °FFog.5 mph100%29.98 "Hg2 mi
12:25 AM63 °FFog.6 mph94%29.98 "Hg2 mi
11:55 PM
Sep 20
63 °FFog.6 mph94%29.98 "Hg2 mi
11:25 PM63 °FFog.7 mph94%29.98 "Hg2 mi
10:55 PM63 °FFog.5 mph94%29.98 "Hg2 mi
10:25 PM61 °FFog.6 mph100%29.98 "Hg2 mi
9:55 PM63 °FFog.6 mph94%29.98 "Hg2 mi
9:25 PM63 °FFog.7 mph94%29.98 "Hg2 mi
8:55 PM63 °FFog.9 mph100%29.95 "Hg2 mi
8:25 PM63 °FThunderstorms. Fog.5 mph100%29.95 "Hg1 mi
7:55 PM64 °FFog.5 mph94%29.95 "Hg2 mi
3:25 PM72 °FThunderstorms. Passing clouds.9 mph73%29.92 "HgN/A
2:55 PM70 °FThunderstorms. Broken clouds.10 mph88%29.92 "Hg3 mi
2:25 PM72 °FPartly sunny.6 mph73%29.92 "Hg4 mi
1:55 PM73 °FBroken clouds.5 mph74%29.92 "Hg4 mi
1:25 PM70 °FFog.2 mph83%29.95 "Hg3 mi
12:55 PM68 °FFog.2 mph88%29.95 "Hg2 mi
12:25 PM66 °FFog.2 mph94%29.95 "Hg1 mi
11:55 AM64 °FFog.1 mph100%29.95 "Hg1 mi
11:25 AM64 °FFog.1 mph100%29.95 "Hg1 mi
10:55 AM63 °FFog.2 mph100%29.95 "Hg0 mi
10:25 AM63 °FFog.1 mph100%29.95 "Hg0 mi
9:55 AM61 °FFog.1 mph100%29.92 "Hg0 mi
9:25 AM61 °FFog.1 mph100%29.92 "Hg0 mi
8:55 AM61 °FFog.1 mph100%29.92 "Hg0 mi
8:25 AM59 °FFog.1 mph100%29.92 "Hg0 mi
7:55 AM59 °FFog.2 mph100%29.92 "Hg0 mi
7:25 AM57 °FFog.No wind100%29.92 "Hg0 mi
6:55 AM57 °FFog.1 mph100%29.92 "Hg0 mi
6:25 AM57 °FFog.1 mph100%29.92 "Hg0 mi
5:55 AM57 °FFog.1 mph100%29.92 "Hg0 mi
5:25 AM55 °FFog.1 mph100%29.92 "Hg0 mi
4:55 AM55 °FFog.1 mph94%29.92 "Hg0 mi
4:25 AM55 °FFog.1 mph94%29.92 "Hg0 mi
3:55 AM54 °FFog.1 mph100%29.92 "Hg0 mi
3:25 AM55 °FFog.1 mph94%29.92 "Hg0 mi
2:55 AM55 °FFog.2 mph100%29.92 "Hg1 mi
2:25 AM55 °FFog.2 mph100%29.92 "Hg2 mi
Weather by CustomWeather, © 2014

See weather overviewHow to use our weather pages